Location: Bellflower
(33.8817°N, 118.1170°W)
Time: 13:48:38
(UTC+00:00)

USA 276 - Pass Details

Date: 23 November 2020
Orbit: 380 x 394 km, 50.0° (Epoch: 07 January)

Event Time Altitude Azimuth Distance (km) Brightness Sun altitude
Exits shadow 13:49:48 13° 295° (WNW) 1,274 4.0 -9.1°
Maximum altitude 13:52:28 42° 225° (SW) 572 2.7 -8.6°
Drops below altitude 10° 13:55:30 10° 153° (SSE) 1,423 5.7 -8.0°
Sets 13:57:37 0° 146° (SE) 2,272 7.0 -7.6°
